"Pseudo-MPEC" for P10IgXI

Created 2018 Jul 19 18:18:02 UT using Find_Orb

Click here for an explanation of pseudo-MPECs

 
 Astrometry: 
     P10IgXI  C2018 07 10M1Astrometryqwp\L+A^=vfy#MjU:$_][5RQBuX^a)51cL]IG]-dF51
     P10IgXI  C2018 07 10Yt=7!-F;e_xFt*RdTAnCRWo6MhZ-bwxc^DXJ)1p#;sug'[$Ilt_MF51
     P10IgXI  C2018 07 10j2;KsWHqta;R1x=[U38N.%/%:4N,b33,yNWM_ZDYA:f,l)AHYv%^F51
     P10IgXI KC2018 07 13`*RN29jyLvxUTK:hJredacted;tc`o0CjX`J/?bI#;w5Tg4Z=f5K807
     P10IgXI KC2018 07 138P9J40KDSpWmt@f\iiQf$_-8@$%UPq+ig/F!sKy'uVtov;,?*]_c807
     P10IgXI KC2018 07 13wlU=q4L!+2DLAj';p'Bk7p;heG-p^m3[9hRd#%ebk0ifTp'$w#p5807
     P10IgXI KC2018 07 19N1Wm2d=p1PRK?*ivcU^T?MAsxxuZHdb3AUE`s;q#GvB,frou1$:8474
     P10IgXI KC2018 07 19yg6U?25APQTLaSf4I77p44T,LO=PCVOdseel**XtKc%Z5f3U6l8-474
     P10IgXI KC2018 07 19Zc425=P?:`n%RS/e'4N,n=M\r'rd?YEyw322QRkJ.-Ys4H!uHRjO474
     P10IgXI KC2018 07 19%UI8TH5A4HLPTrRTBaV4P$6%tT'MEW,TZDb\4)q60Gj(TxJ;nOE*474
     P10IgXI KC2018 07 19e$%t,,s=lMwji3$L*:\,^d`75!+o**J/YDo?=21D/!gBZ9'NEOCP474

Station data:
(474) Mount John Observatory, Lake Tekapo  (S43.987388 E170.464960)  New
   Zealand.  Observers A. C. Gilmore, P. M. Kilmartin. Measurer P. M.
   Kilmartin. 1.0-m f/7.7 reflector + CCD.
(807) Cerro Tololo Observatory, La Serena  (S30.169136 W70.805900)  Chile.
   1.5-m Ritchey-Chrétien.
(F51) Pan-STARRS 1, Haleakala  (N20.707235 W156.255910)  US/Hawaii.
   Observers N. Primak, A. Schultz, S. Watters, J. Thiel, T. Goggia. Measurer
   PS1 Science Consortium. 1.8-m Ritchey-Chrétien + CCD.

Orbital elements:  P10IgXI
   Perihelion 2018 Apr 13.164259 +/- 0.0561 TT =  3:56:31 (JD 2458221.664259)
Epoch 2018 Jul 19.0 TT = JDT 2458318.5   Earth MOID: 0.1175   Ma: 0.0487
M  47.33514 +/- 0.06                (J2000 ecliptic)          AutoNEOCP
n   0.48881892 +/- 0.000671         Peri.  126.17547 +/- 0.036
a   1.59601648 +/- 0.00146          Node    94.58465 +/- 0.024
e   0.3425559 +/- 0.000568          Incl.   14.10136 +/- 0.021
P   2.02/736.46d           H 21.9   G  0.15   U  7.8  
q 1.04929150 +/- 5.45e-5    Q 2.14274146 +/- 0.00286
From 11 observations 2018 July 10-19; mean residual 0".18
Residuals in arcseconds: 
180710 F51  .02-  .07+    180713 807  .27+  .15-    180719 474  .03+  .24+    
180710 F51  .03-  .13-    180713 807  .11-  .11+    180719 474  .50+  .13+    
180710 F51  .05+  .06+    180719 474  .08-  .25-    180719 474  .11-  .08-    
180713 807  .16-  .04+    180719 474  .34-  .04-    

Ephemerides (geocentric):
Date (UTC) HH   RA              Dec         delta   r     elong  mag " sig PA
---- -- -- --  -------------   -----------  ------ ------ -----  --- ---- ---
2018 07 19 18  22 41 24.103   -34 43 57.59  .42169 1.3699 141.0 21.9  .09  97
2018 07 19 19  22 41 21.852   -34 45 16.02  .42179 1.3701 141.0 21.9  .10  97
2018 07 19 20  22 41 19.594   -34 46 34.40  .42190 1.3703 141.1 21.9  .11  98
2018 07 19 21  22 41 17.329   -34 47 52.71  .42200 1.3705 141.1 21.9  .11  98
2018 07 19 22  22 41 15.057   -34 49 10.97  .42211 1.3707 141.1 21.9  .12  99
2018 07 19 23  22 41 12.777   -34 50 29.17  .42221 1.3709 141.2 21.9  .13  99
2018 07 20 00  22 41 10.491   -34 51 47.31  .42232 1.3711 141.2 21.9  .13  99
2018 07 20 01  22 41 08.197   -34 53 05.39  .42243 1.3714 141.2 21.9  .14 100
2018 07 20 02  22 41 05.895   -34 54 23.41  .42253 1.3716 141.3 21.9  .15 100
2018 07 20 03  22 41 03.587   -34 55 41.37  .42264 1.3718 141.3 21.9  .15 100
2018 07 20 04  22 41 01.272   -34 56 59.28  .42275 1.3720 141.3 21.9  .16 101
2018 07 20 05  22 40 58.949   -34 58 17.13  .42285 1.3722 141.4 21.9  .17 101
2018 07 20 06  22 40 56.619   -34 59 34.91  .42296 1.3724 141.4 21.9  .17 101
2018 07 20 07  22 40 54.282   -35 00 52.64  .42307 1.3726 141.4 21.9  .18 101
2018 07 20 08  22 40 51.938   -35 02 10.30  .42318 1.3728 141.5 21.9  .19 102
2018 07 20 09  22 40 49.587   -35 03 27.91  .42328 1.3730 141.5 21.9  .20 102
2018 07 20 10  22 40 47.228   -35 04 45.46  .42339 1.3732 141.5 21.9  .20 102
2018 07 20 11  22 40 44.863   -35 06 02.94  .42350 1.3734 141.6 21.9  .21 102
2018 07 20 12  22 40 42.490   -35 07 20.37  .42361 1.3736 141.6 21.9  .22 102
2018 07 20 13  22 40 40.111   -35 08 37.74  .42372 1.3738 141.6 21.9  .23 103
2018 07 20 14  22 40 37.724   -35 09 55.04  .42383 1.3740 141.7 21.9  .23 103
2018 07 20 15  22 40 35.330   -35 11 12.28  .42394 1.3742 141.7 21.9  .24 103
2018 07 20 16  22 40 32.929   -35 12 29.47  .42405 1.3744 141.7 21.9  .25 103
2018 07 20 17  22 40 30.521   -35 13 46.59  .42416 1.3747 141.8 21.9  .26 103
2018 07 20 18  22 40 28.106   -35 15 03.65  .42427 1.3749 141.8 21.9  .26 103
2018 07 20 19  22 40 25.684   -35 16 20.65  .42438 1.3751 141.8 21.9  .27 103
2018 07 20 20  22 40 23.254   -35 17 37.58  .42449 1.3753 141.9 21.9  .28 103
2018 07 20 21  22 40 20.818   -35 18 54.46  .42460 1.3755 141.9 21.9  .29 104
2018 07 20 22  22 40 18.375   -35 20 11.27  .42471 1.3757 141.9 21.9  .30 104
2018 07 20 23  22 40 15.925   -35 21 28.02  .42482 1.3759 142.0 21.9  .30 104
2018 07 21 00  22 40 13.467   -35 22 44.71  .42493 1.3761 142.0 21.9  .31 104
2018 07 21 01  22 40 11.003   -35 24 01.34  .42504 1.3763 142.0 21.9  .32 104
2018 07 21 02  22 40 08.531   -35 25 17.90  .42516 1.3765 142.1 21.9  .33 104
2018 07 21 03  22 40 06.053   -35 26 34.40  .42527 1.3767 142.1 21.9  .34 104
2018 07 21 04  22 40 03.568   -35 27 50.84  .42538 1.3769 142.1 21.9  .35 104
2018 07 21 05  22 40 01.075   -35 29 07.22  .42549 1.3771 142.2 21.9  .35 104
2018 07 21 06  22 39 58.576   -35 30 23.53  .42560 1.3773 142.2 21.9  .36 105
2018 07 21 07  22 39 56.070   -35 31 39.78  .42572 1.3775 142.2 21.9  .37 105
2018 07 21 08  22 39 53.557   -35 32 55.96  .42583 1.3777 142.3 21.9  .38 105
2018 07 21 09  22 39 51.036   -35 34 12.08  .42594 1.3780 142.3 21.9  .39 105
2018 07 21 10  22 39 48.509   -35 35 28.14  .42606 1.3782 142.3 21.9  .40 105
2018 07 21 11  22 39 45.975   -35 36 44.13  .42617 1.3784 142.4 21.9  .41 105
2018 07 21 12  22 39 43.434   -35 38 00.06  .42628 1.3786 142.4 21.9  .42 105
2018 07 21 13  22 39 40.886   -35 39 15.92  .42640 1.3788 142.4 21.9  .42 105
2018 07 21 14  22 39 38.331   -35 40 31.72  .42651 1.3790 142.5 21.9  .43 105
2018 07 21 15  22 39 35.769   -35 41 47.46  .42663 1.3792 142.5 21.9  .44 105
2018 07 21 16  22 39 33.201   -35 43 03.13  .42674 1.3794 142.5 21.9  .45 105
2018 07 21 17  22 39 30.625   -35 44 18.73  .42686 1.3796 142.6 21.9  .46 105